Regional Weather Roundup
Issued by NWS

Home | Current Version | Previous Version | Graphics & Text | Print | Product List | Glossary On
Versions: 1 2 3 4 5 6 7 8 9 10 11 12 13 14 15 16 17 18 19 20 21 22 23 24 25 26 27 28 29 30 31 32 33 34 35 36 37 38 39 40 41 42 43 44 45 46 47 48 49 50
000
ASUS43 KLMK 252002
RWRKY
KENTUCKY REGIONAL WEATHER ROUNDUP
NATIONAL WEATHER SERVICE LOUISVILLE KY
400 PM EDT SAT APR 25 2015

NOTE "FAIR" INDICATES FEW OR NO CLOUDS BELOW 12,000 FEET
WITH NO SIGNIFICANT WEATHER AND/OR OBSTRUCTIONS TO VISIBILITY.

KYZ001>023-026-027-061>063-070>075-252100-
WESTERN AND SOUTH CENTRAL KENTUCKY

CITY           SKY/WX    TMP DP  RH WIND       PRES   REMARKS
PADUCAH        PTSUNNY   75  59  57 SW15G22   29.50S
HENDERSON      PTSUNNY   73  57  56 W15       29.48R
OWENSBORO      PTSUNNY   79  62  55 SW16      29.48F
HOPKINSVILLE   MOSUNNY   79  59  50 SW24      29.51F HAZE
BOWLING GREEN  MOSUNNY   80  62  54 SW12G24   29.51F
GLASGOW        NOT AVBL
$$

KYZ024-025-028>034-038-045-046-053-252100-
NORTH CENTRAL KENTUCKY

CITY           SKY/WX    TMP DP  RH WIND       PRES   REMARKS
LOUISVILLE/SDF CLOUDY    60  55  83 N7        29.55S
LOUISVILLE/LOU CLOUDY    58  55  90 NE6       29.56F
FORT KNOX      CLOUDY    69  61  77 NE6       29.51F
$$

KYZ035>037-039>044-047>052-055>060-089>105-252100-
NORTHEAST KENTUCKY

CITY           SKY/WX    TMP DP  RH WIND       PRES   REMARKS
LEXINGTON      CLOUDY    60  55  83 NE5       29.57S
COVINGTON      LGT RAIN  46  44  93 NE16      29.66R FOG
FRANKFORT      CLOUDY    56  52  86 NE7       29.56F
$$

KYZ054-064>069-076>088-106>120-252100-
SOUTHEAST KENTUCKY

CITY           SKY/WX    TMP DP  RH WIND       PRES   REMARKS
JACKSON        MOSUNNY   67  56  67 CALM      29.56F
LONDON         MOSUNNY   76  55  48 SW10G20   29.56F
SOMERSET       NOT AVBL
MIDDLESBORO    PTSUNNY   68  58  71 S8G17     29.62F
MONTICELLO     PTCLDY    79  62  55 SW18      29.58F
$$




USA.gov is the U.S. government's official web portal to all federal, state and local government web resources and services.